Date,TemperatureHighF,TemperatureAvgF,TemperatureLowF,DewpointHighF,DewpointAvgF,DewpointLowF,HumidityHigh,HumidityAvg,HumidityLow,PressureMaxIn,PressureMinIn,WindSpeedMaxMPH,WindSpeedAvgMPH,GustSpeedMaxMPH,PrecipitationSumIn
2014-1-3,-2.0,-2.0,-2.0,-99.9,-99.9,-99.9,0,0,100,29.96,29.96,0,-999,0,0.00
2014-1-15,41.0,38.2,34.0,-99.9,-99.9,-99.9,0,0,100,29.95,29.70,0,-999,0,0.00
2014-1-16,37.0,36.5,36.0,-99.9,-99.9,-99.9,0,0,100,29.89,29.89,0,-999,0,0.00
2014-1-17,40.0,36.8,35.0,-99.9,-99.9,-99.9,0,0,100,29.92,29.89,0,-999,0,0.00
2014-1-18,33.0,32.8,32.0,-99.9,-99.9,-99.9,0,0,100,29.92,29.68,0,-999,0,0.00
2014-1-19,29.0,29.0,29.0,-99.9,-99.9,-99.9,0,0,100,29.48,29.48,0,-999,0,0.00
2014-1-20,36.0,34.0,32.0,-99.9,-99.9,-99.9,0,0,100,29.63,29.47,0,-999,0,0.00
2014-1-21,12.0,12.0,12.0,-99.9,-99.9,-99.9,0,0,100,30.03,30.03,0,-999,0,0.00
2014-1-27,28.0,28.0,28.0,-99.9,-99.9,-99.9,0,0,100,29.75,29.75,0,-999,0,0.00
2014-1-28,17.0,17.0,17.0,-99.9,-99.9,-99.9,0,0,100,30.26,30.26,0,-999,0,0.00
2014-1-29,22.0,22.0,22.0,-99.9,-99.9,-99.9,0,0,100,29.98,29.98,0,-999,0,0.00
2014-1-30,26.0,26.0,26.0,-99.9,-99.9,-99.9,0,0,100,30.27,30.27,0,-999,0,0.00
2014-1-31,36.0,35.0,34.0,-99.9,-99.9,-99.9,0,0,100,30.15,29.96,0,-999,0,0.00
2014-2-1,38.0,36.5,34.0,-99.9,-99.9,-99.9,0,0,100,30.29,30.06,0,-999,0,0.00
2014-2-2,40.0,38.0,37.0,-99.9,-99.9,-99.9,0,0,100,29.99,29.84,0,-999,0,0.00
2014-2-11,24.0,22.5,18.0,-99.9,-99.9,-99.9,0,0,100,30.31,30.21,0,-999,0,0.00
2014-2-12,23.0,23.0,23.0,-99.9,-99.9,-99.9,0,0,100,30.46,30.46,0,-999,0,0.00
2014-2-13,30.0,30.0,30.0,-99.9,-99.9,-99.9,0,0,100,29.57,29.57,0,-999,0,0.00
2014-2-14,33.0,32.8,32.0,-99.9,-99.9,-99.9,0,0,100,29.37,28.77,0,-999,0,0.00
2014-2-15,30.0,30.0,30.0,-99.9,-99.9,-99.9,0,0,100,29.68,29.68,0,-999,0,0.00
2014-2-16,25.0,25.0,25.0,-99.9,-99.9,-99.9,0,0,100,29.80,29.80,0,-999,0,0.00
2014-2-17,22.0,22.0,22.0,-99.9,-99.9,-99.9,0,0,100,30.29,30.29,0,-999,0,0.00
2014-2-19,33.0,32.5,32.0,-99.9,-99.9,-99.9,0,0,100,29.78,29.77,0,-999,0,0.00
2014-2-20,43.0,40.0,33.0,-99.9,-99.9,-99.9,0,0,100,30.14,29.76,0,-999,0,0.00
2014-2-21,39.0,37.0,33.0,-99.9,-99.9,-99.9,0,0,100,30.15,29.66,0,-999,0,0.00
2014-2-22,46.0,40.0,34.0,-99.9,-99.9,-99.9,0,0,100,29.88,29.78,0,-999,0,0.00
2014-2-23,44.0,41.5,40.0,-99.9,-99.9,-99.9,0,0,100,29.90,29.77,0,-999,0,0.00
2014-2-24,35.0,33.7,33.0,-99.9,-99.9,-99.9,0,0,100,29.72,29.69,0,-999,0,0.00
2014-2-26,21.0,21.0,21.0,-99.9,-99.9,-99.9,0,0,100,29.80,29.80,0,-999,0,0.00
2014-2-27,22.0,22.0,22.0,-99.9,-99.9,-99.9,0,0,100,29.65,29.65,0,-999,0,0.00
2014-2-28,21.0,21.0,21.0,-99.9,-99.9,-99.9,0,0,100,30.36,30.36,0,-999,0,0.00
2014-3-1,30.0,30.0,30.0,-99.9,-99.9,-99.9,0,0,100,30.14,30.14,0,-999,0,0.00
2014-3-2,30.0,30.0,30.0,-99.9,-99.9,-99.9,0,0,100,30.01,30.01,0,-999,0,0.00
2014-3-3,20.0,20.0,20.0,-99.9,-99.9,-99.9,0,0,100,30.20,30.20,0,-999,0,0.00
2014-3-4,27.0,27.0,27.0,-99.9,-99.9,-99.9,0,0,100,30.24,30.24,0,-999,0,0.00
2014-3-5,20.0,20.0,20.0,-99.9,-99.9,-99.9,0,0,100,30.40,30.40,0,-999,0,0.00
2014-3-6,26.0,26.0,26.0,-99.9,-99.9,-99.9,0,0,100,30.52,30.52,0,-999,0,0.00
2014-3-7,33.0,32.0,30.0,-99.9,-99.9,-99.9,0,0,100,30.21,30.11,0,-999,0,0.00
2014-3-8,44.0,41.0,38.0,-99.9,-99.9,-99.9,0,0,100,29.78,29.68,0,-999,0,0.00
2014-3-9,35.0,33.5,32.0,-99.9,-99.9,-99.9,0,0,100,29.89,29.86,0,-999,0,0.00
2014-3-10,35.0,33.5,32.0,-99.9,-99.9,-99.9,0,0,100,29.73,29.65,0,-999,0,0.00
2014-3-11,48.0,42.2,37.0,-99.9,-99.9,-99.9,0,0,100,29.65,29.50,0,-999,0,0.00
2014-3-12,38.0,36.4,35.0,-99.9,-99.9,-99.9,0,0,100,29.72,29.12,0,-999,0,0.00
2014-3-13,19.0,17.5,16.0,-99.9,-99.9,-99.9,0,0,100,29.68,29.32,0,-999,0,0.00
2014-3-14,36.0,35.5,34.0,-99.9,-99.9,-99.9,0,0,100,29.93,29.88,0,-999,0,0.00
2014-3-15,48.0,41.8,36.0,-99.9,-99.9,-99.9,0,0,100,29.83,29.62,0,-999,0,0.00
2014-3-16,40.0,32.0,22.0,-99.9,-99.9,-99.9,0,0,100,30.14,29.76,0,-999,0,0.00
2014-3-17,23.0,23.0,23.0,-99.9,-99.9,-99.9,0,0,100,30.09,30.09,0,-999,0,0.00
2014-3-18,33.0,31.0,29.0,-99.9,-99.9,-99.9,0,0,100,30.34,30.30,0,-999,0,0.00
2014-3-27,36.0,34.3,32.0,-99.9,-99.9,-99.9,0,0,100,30.23,30.20,0,-999,0,0.00
2014-3-28,46.0,41.0,35.0,-99.9,-99.9,-99.9,0,0,100,30.18,29.91,0,-999,0,0.00
2014-3-29,44.0,42.0,39.0,-99.9,-99.9,-99.9,0,0,100,30.26,30.06,0,-999,0,0.00
2014-3-30,38.0,36.4,35.0,-99.9,-99.9,-99.9,0,0,100,30.12,29.74,0,-999,0,0.00
2014-3-31,39.0,35.0,33.0,-99.9,-99.9,-99.9,0,0,100,29.95,29.75,0,-999,0,0.00
2014-4-1,48.0,42.8,37.0,-99.9,-99.9,-99.9,0,0,100,30.06,30.01,0,-999,0,0.00
2014-4-2,38.0,36.0,34.0,-99.9,-99.9,-99.9,0,0,100,30.11,30.05,0,-999,0,0.00
2014-4-3,42.0,38.0,32.0,-99.9,-99.9,-99.9,0,0,100,30.10,30.03,0,-999,0,0.00
2014-6-4,53.0,52.0,51.0,-99.9,-99.9,-99.9,0,0,100,29.94,29.91,0,-999,0,0.00
2014-11-7,46.0,42.4,40.0,-99.9,0.0,200.0,0,0,100,29.64,29.40,0,0,0,0.00
2014-11-8,44.0,44.0,44.0,-99.9,0.0,200.0,0,0,100,29.89,29.88,0,0,0,0.00
2014-11-9,53.0,48.3,44.0,-99.9,0.0,200.0,0,0,100,29.93,29.85,0,0,0,0.00
2014-11-10,51.0,51.0,51.0,-99.9,0.0,200.0,0,0,100,30.13,30.13,0,0,0,0.00
2014-11-11,55.0,53.8,52.0,-99.9,0.0,200.0,0,0,100,30.05,30.02,0,0,0,0.00
2014-11-12,59.0,53.1,51.0,-99.9,0.0,200.0,0,0,100,29.95,29.84,0,0,0,0.00
2014-11-13,47.0,46.7,46.0,-99.9,0.0,200.0,0,0,100,30.03,29.96,0,0,0,0.00
2014-11-14,37.0,35.5,34.0,-99.9,0.0,200.0,0,0,100,29.92,29.89,0,0,0,0.00
2014-11-15,37.0,37.0,37.0,-99.9,0.0,200.0,0,0,100,30.24,30.24,0,0,0,0.00
2014-11-18,38.0,36.2,35.0,-99.9,0.0,200.0,0,0,100,29.60,29.40,0,0,0,0.00
2014-11-19,34.0,34.0,34.0,-99.9,0.0,200.0,0,0,100,30.07,30.07,0,0,0,0.00
2014-11-20,40.0,40.0,40.0,-99.9,0.0,200.0,0,0,100,29.76,29.76,0,0,0,0.00
2014-11-22,39.0,31.9,26.0,-99.9,0.0,200.0,0,0,100,30.33,30.03,0,0,0,0.00
2014-11-23,48.0,48.0,48.0,-99.9,0.0,200.0,0,0,100,30.10,30.10,0,0,0,0.00
2014-11-24,58.0,55.2,52.0,-99.9,0.0,200.0,0,0,100,29.91,29.53,0,0,0,0.00
2014-11-25,63.0,57.4,53.0,-99.9,0.0,200.0,0,0,100,29.95,29.65,0,0,0,0.00
2014-11-26,47.0,38.0,32.0,-99.9,0.0,200.0,0,0,100,30.19,29.88,0,0,0,0.00
2014-11-27,35.0,33.5,33.0,-99.9,0.0,200.0,0,0,100,29.99,29.91,0,0,0,0.00
2014-11-28,32.0,31.0,30.0,-99.9,0.0,200.0,0,0,100,30.11,30.04,0,0,0,0.00
2014-11-29,29.0,27.7,27.0,-99.9,0.0,200.0,0,0,100,30.32,30.31,0,0,0,0.00
2014-11-30,49.0,44.7,33.0,-99.9,0.0,200.0,0,0,100,30.24,30.01,0,0,0,0.00
2014-12-1,60.0,49.4,37.0,-99.9,0.0,200.0,0,0,100,30.39,29.96,0,0,0,0.00
2014-12-2,33.0,31.5,30.0,-99.9,0.0,200.0,0,0,100,30.70,30.51,0,0,0,0.00
2014-12-3,39.0,34.6,30.0,-99.9,0.0,200.0,0,0,100,30.07,29.83,0,0,0,0.00
2014-12-4,39.0,35.7,33.0,-99.9,0.0,200.0,0,0,100,30.40,30.07,0,0,0,0.00
2014-12-5,30.0,30.0,30.0,-99.9,0.0,200.0,0,0,100,30.62,30.62,0,0,0,0.00
2014-12-6,37.0,35.3,34.0,-99.9,0.0,200.0,0,0,100,30.18,30.13,0,0,0,0.00
2014-12-7,36.0,30.0,20.0,-99.9,0.0,200.0,0,0,100,30.71,30.31,0,0,0,0.00
2014-12-8,20.0,19.5,19.0,-99.9,0.0,200.0,0,0,100,30.72,30.71,0,0,0,0.00
2014-12-9,37.0,35.8,34.0,-99.9,0.0,200.0,0,0,100,30.09,29.82,0,0,0,0.00
2014-12-10,38.0,36.9,36.0,-99.9,0.0,200.0,0,0,100,29.64,29.43,0,0,0,0.00
2014-12-11,40.0,36.2,34.0,-99.9,0.0,200.0,0,0,100,29.68,29.46,0,0,0,0.00
2014-12-12,39.0,36.2,34.0,-99.9,0.0,200.0,0,0,100,29.84,29.80,0,0,0,0.00
2014-12-13,37.0,35.8,35.0,-99.9,0.0,200.0,0,0,100,29.80,29.74,0,0,0,0.00
2014-12-14,44.0,38.2,35.0,-99.9,0.0,200.0,0,0,100,29.84,29.75,0,0,0,0.00
2014-12-15,38.0,35.7,32.0,-99.9,0.0,200.0,0,0,100,30.16,29.91,0,0,0,0.00
2014-12-16,38.0,35.3,32.0,-99.9,0.0,200.0,0,0,100,30.16,30.01,0,0,0,0.00
2014-12-17,40.0,38.6,37.0,-99.9,0.0,200.0,0,0,100,29.93,29.65,0,0,0,0.00
2014-12-18,42.0,39.5,35.0,-99.9,0.0,200.0,0,0,100,29.80,29.67,0,0,0,0.00
2014-12-19,34.0,33.6,33.0,-99.9,0.0,200.0,0,0,100,30.04,29.80,0,0,0,0.00
2014-12-20,30.0,28.8,27.0,-99.9,0.0,200.0,0,0,100,30.35,30.22,0,0,0,0.00
2014-12-21,31.0,28.7,25.0,-99.9,0.0,200.0,0,0,100,30.37,30.37,0,0,0,0.00
2014-12-24,38.0,37.1,36.0,-99.9,0.0,200.0,0,0,100,30.22,29.79,0,0,0,0.00
2014-12-25,51.0,44.8,38.0,-99.9,0.0,200.0,0,0,100,29.69,29.47,0,0,0,0.00
2014-12-26,49.0,46.5,43.0,-99.9,0.0,200.0,0,0,100,30.07,30.03,0,0,0,0.00
2014-12-27,49.0,46.4,42.0,-99.9,0.0,200.0,0,0,100,30.13,29.97,0,0,0,0.00
2014-12-28,49.0,45.0,43.0,-99.9,0.0,200.0,0,0,100,29.89,29.70,0,0,0,0.00
2014-12-29,38.0,35.0,31.0,-99.9,0.0,200.0,0,0,100,30.16,30.04,0,0,0,0.00
2014-12-30,26.0,22.3,20.0,-99.9,0.0,200.0,0,0,100,30.33,30.28,0,0,0,0.00
2014-12-31,26.0,23.0,16.0,-99.9,0.0,200.0,0,0,100,30.25,30.17,0,0,0,0.00
2015-1-1,30.0,30.0,30.0,-99.9,0.0,200.0,0,0,100,29.87,29.87,0,0,0,0.00
2015-1-2,35.0,33.4,28.0,-99.9,0.0,200.0,0,0,100,30.25,30.01,0,0,0,0.00